Time,TemperatureF,DewpointF,PressureIn,WindDirection,WindDirectionDegrees,WindSpeedMPH,WindSpeedGustMPH,Humidity,HourlyPrecipIn,Conditions,Clouds,dailyrainin,SolarRadiationWatts/m^2,SoftwareType,DateUTC
2013-12-07 00:00:00,31.9,21.1,30.56,NW,320,0.0,-999.0,64,0.00,,,1.22,1,WeatherHawk,2013-12-07 05:00:00,
2013-12-07 00:05:00,31.8,21.4,30.55,NW,320,0.0,-999.0,65,0.00,,,0.00,1,WeatherHawk,2013-12-07 05:05:00,
2013-12-07 00:10:00,31.7,21.3,30.55,NW,320,0.0,-999.0,65,0.00,,,0.00,0,WeatherHawk,2013-12-07 05:10:00,
2013-12-07 00:15:00,31.7,21.6,30.56,NW,320,0.0,-999.0,66,0.00,,,0.00,0,WeatherHawk,2013-12-07 05:15:00,
2013-12-07 00:20:00,31.7,21.6,30.55,NW,321,0.0,-999.0,66,0.00,,,0.00,0,WeatherHawk,2013-12-07 05:20:00,
2013-12-07 00:25:00,31.8,21.8,30.55,NW,320,0.0,-999.0,66,0.00,,,0.00,0,WeatherHawk,2013-12-07 05:25:00,
2013-12-07 00:30:00,31.7,21.3,30.54,NW,320,0.0,-999.0,65,0.00,,,0.00,0,WeatherHawk,2013-12-07 05:30:00,
2013-12-07 00:35:00,31.8,20.6,30.54,NW,320,0.0,-999.0,63,0.00,,,0.00,1,WeatherHawk,2013-12-07 05:35:00,
2013-12-07 00:40:00,31.9,20.3,30.55,NW,320,0.0,-999.0,62,0.00,,,0.00,0,WeatherHawk,2013-12-07 05:40:00,
2013-12-07 00:45:00,31.7,18.2,30.55,NW,320,0.0,-999.0,57,0.00,,,0.00,1,WeatherHawk,2013-12-07 05:45:00,
2013-12-07 00:50:00,31.8,17.5,30.56,NW,320,0.0,-999.0,55,0.00,,,0.00,1,WeatherHawk,2013-12-07 05:50:00,
2013-12-07 00:55:00,31.8,17.5,30.55,NW,320,0.0,-999.0,55,0.00,,,0.00,1,WeatherHawk,2013-12-07 05:55:00,
2013-12-07 01:00:00,31.7,17.8,30.56,NW,321,0.0,-999.0,56,0.00,,,0.00,0,WeatherHawk,2013-12-07 06:00:00,
2013-12-07 01:05:00,31.7,17.4,30.56,NW,321,0.0,-999.0,55,0.00,,,0.00,0,WeatherHawk,2013-12-07 06:05:00,
2013-12-07 01:10:00,31.8,17.5,30.56,NW,320,0.0,-999.0,55,0.00,,,0.00,0,WeatherHawk,2013-12-07 06:10:00,
2013-12-07 01:15:00,31.6,17.3,30.56,NW,320,0.0,-999.0,55,0.00,,,0.00,1,WeatherHawk,2013-12-07 06:15:00,
2013-12-07 01:20:00,31.8,17.5,30.56,NW,320,0.0,-999.0,55,0.00,,,0.00,0,WeatherHawk,2013-12-07 06:20:00,
2013-12-07 01:25:00,31.6,17.4,30.56,NW,321,0.0,-999.0,55,0.00,,,0.00,1,WeatherHawk,2013-12-07 06:25:00,
2013-12-07 01:30:00,31.6,17.8,30.56,NW,320,0.0,-999.0,56,0.00,,,0.00,1,WeatherHawk,2013-12-07 06:30:00,
2013-12-07 01:35:00,31.6,18.2,30.56,NW,320,0.0,-999.0,57,0.00,,,0.00,0,WeatherHawk,2013-12-07 06:35:00,
2013-12-07 01:40:00,31.6,17.7,30.56,NW,320,0.0,-999.0,56,0.00,,,0.00,1,WeatherHawk,2013-12-07 06:40:00,
2013-12-07 01:45:00,31.7,17.4,30.55,NW,320,0.0,-999.0,55,0.00,,,0.00,0,WeatherHawk,2013-12-07 06:45:00,
2013-12-07 01:50:00,31.5,17.7,30.57,NW,321,0.0,-999.0,56,0.00,,,0.00,0,WeatherHawk,2013-12-07 06:50:00,
2013-12-07 01:55:00,31.4,17.1,30.57,NW,320,0.0,-999.0,55,0.00,,,0.00,0,WeatherHawk,2013-12-07 06:55:00,
2013-12-07 02:00:00,31.1,16.9,30.57,NW,320,0.0,-999.0,55,0.00,,,0.00,0,WeatherHawk,2013-12-07 07:00:00,
2013-12-07 02:05:00,31.1,16.9,30.58,NW,321,0.0,-999.0,55,0.00,,,0.00,0,WeatherHawk,2013-12-07 07:05:00,
2013-12-07 02:10:00,31.1,16.4,30.57,NW,321,0.0,-999.0,54,0.00,,,0.00,0,WeatherHawk,2013-12-07 07:10:00,
2013-12-07 02:15:00,31.1,16.9,30.58,NW,320,0.0,-999.0,55,0.00,,,0.00,0,WeatherHawk,2013-12-07 07:15:00,
2013-12-07 02:20:00,31.0,16.8,30.58,NW,320,0.0,-999.0,55,0.00,,,0.00,1,WeatherHawk,2013-12-07 07:20:00,
2013-12-07 02:25:00,31.0,15.9,30.58,NW,320,0.0,-999.0,53,0.00,,,0.00,1,WeatherHawk,2013-12-07 07:25:00,
2013-12-07 02:30:00,30.9,16.6,30.59,NW,321,0.0,-999.0,55,0.00,,,0.00,1,WeatherHawk,2013-12-07 07:30:00,
2013-12-07 02:35:00,31.0,15.9,30.59,NW,320,0.0,-999.0,53,0.00,,,0.00,1,WeatherHawk,2013-12-07 07:35:00,
2013-12-07 02:40:00,30.9,15.4,30.60,NW,320,0.0,-999.0,52,0.00,,,0.00,0,WeatherHawk,2013-12-07 07:40:00,
2013-12-07 02:45:00,31.0,15.9,30.59,NW,320,0.0,-999.0,53,0.00,,,0.00,1,WeatherHawk,2013-12-07 07:45:00,
2013-12-07 02:50:00,31.0,15.5,30.59,NW,320,0.0,-999.0,52,0.00,,,0.00,0,WeatherHawk,2013-12-07 07:50:00,
2013-12-07 02:55:00,31.2,16.1,30.59,NW,321,0.0,-999.0,53,0.00,,,0.00,0,WeatherHawk,2013-12-07 07:55:00,
2013-12-07 03:00:00,31.1,16.0,30.59,NW,321,0.0,-999.0,53,0.00,,,0.00,0,WeatherHawk,2013-12-07 08:00:00,
2013-12-07 03:05:00,31.0,15.9,30.60,NW,320,0.0,-999.0,53,0.00,,,0.00,0,WeatherHawk,2013-12-07 08:05:00,
2013-12-07 03:10:00,31.0,16.3,30.59,NW,320,0.0,-999.0,54,0.00,,,0.00,0,WeatherHawk,2013-12-07 08:10:00,
2013-12-07 03:15:00,31.0,17.2,30.61,NW,320,0.0,-999.0,56,0.00,,,0.00,0,WeatherHawk,2013-12-07 08:15:00,
2013-12-07 03:20:00,31.0,17.5,30.60,NW,321,0.0,-999.0,57,0.00,,,0.00,0,WeatherHawk,2013-12-07 08:20:00,
2013-12-07 03:25:00,31.0,18.4,30.61,NW,320,0.0,-999.0,59,0.00,,,0.00,0,WeatherHawk,2013-12-07 08:25:00,
2013-12-07 03:30:00,30.8,18.6,30.61,NW,320,0.0,-999.0,60,0.00,,,0.00,1,WeatherHawk,2013-12-07 08:30:00,
2013-12-07 03:35:00,30.8,18.2,30.61,NW,320,0.0,-999.0,59,0.00,,,0.00,0,WeatherHawk,2013-12-07 08:35:00,
2013-12-07 03:40:00,31.0,18.3,30.61,NW,320,0.0,-999.0,59,0.00,,,0.00,1,WeatherHawk,2013-12-07 08:40:00,
2013-12-07 03:45:00,31.0,18.4,30.61,NW,320,0.0,-999.0,59,0.00,,,0.00,0,WeatherHawk,2013-12-07 08:45:00,
2013-12-07 03:50:00,30.6,17.6,30.61,NW,320,0.0,-999.0,58,0.00,,,0.00,0,WeatherHawk,2013-12-07 08:50:00,
2013-12-07 03:55:00,30.8,17.8,30.62,NW,320,0.0,-999.0,58,0.00,,,0.00,1,WeatherHawk,2013-12-07 08:55:00,
2013-12-07 04:00:00,30.6,16.8,30.62,NW,320,0.0,-999.0,56,0.00,,,0.00,1,WeatherHawk,2013-12-07 09:00:00,
2013-12-07 04:05:00,30.8,17.4,30.62,NW,320,0.0,-999.0,57,0.00,,,0.00,1,WeatherHawk,2013-12-07 09:05:00,
2013-12-07 04:10:00,30.6,16.4,30.62,NW,320,0.0,-999.0,55,0.00,,,0.00,1,WeatherHawk,2013-12-07 09:10:00,
2013-12-07 04:15:00,30.5,16.7,30.63,NW,321,0.0,-999.0,56,0.00,,,0.00,0,WeatherHawk,2013-12-07 09:15:00,
2013-12-07 04:20:00,30.7,16.5,30.63,NW,320,0.0,-999.0,55,0.00,,,0.00,0,WeatherHawk,2013-12-07 09:20:00,
2013-12-07 04:25:00,30.7,16.5,30.63,NW,321,0.0,-999.0,55,0.00,,,0.00,0,WeatherHawk,2013-12-07 09:25:00,
2013-12-07 04:30:00,30.8,16.6,30.63,NW,321,0.0,-999.0,55,0.00,,,0.00,1,WeatherHawk,2013-12-07 09:30:00,
2013-12-07 04:35:00,31.0,16.7,30.64,NW,321,0.0,-999.0,55,0.00,,,0.00,1,WeatherHawk,2013-12-07 09:35:00,
2013-12-07 04:40:00,30.7,16.1,30.64,NW,320,0.0,-999.0,54,0.00,,,0.00,0,WeatherHawk,2013-12-07 09:40:00,
2013-12-07 04:45:00,30.7,16.1,30.64,NW,320,0.0,-999.0,54,0.00,,,0.00,0,WeatherHawk,2013-12-07 09:45:00,
2013-12-07 04:50:00,30.7,16.1,30.65,NW,321,0.0,-999.0,54,0.00,,,0.00,0,WeatherHawk,2013-12-07 09:50:00,
2013-12-07 04:55:00,30.8,16.2,30.65,NW,321,0.0,-999.0,54,0.00,,,0.00,0,WeatherHawk,2013-12-07 09:55:00,
2013-12-07 05:00:00,30.7,16.1,30.65,NW,320,0.0,-999.0,54,0.00,,,0.00,0,WeatherHawk,2013-12-07 10:00:00,
2013-12-07 05:05:00,30.6,16.0,30.66,NW,321,0.0,-999.0,54,0.00,,,0.00,0,WeatherHawk,2013-12-07 10:05:00,
2013-12-07 05:10:00,30.7,16.0,30.66,NW,320,0.0,-999.0,54,0.00,,,0.00,0,WeatherHawk,2013-12-07 10:10:00,
2013-12-07 05:15:00,30.6,16.4,30.66,NW,320,0.0,-999.0,55,0.00,,,0.00,0,WeatherHawk,2013-12-07 10:15:00,
2013-12-07 05:20:00,30.6,16.8,30.67,NW,321,0.0,-999.0,56,0.00,,,0.00,1,WeatherHawk,2013-12-07 10:20:00,
2013-12-07 05:25:00,30.3,15.6,30.66,NW,320,0.0,-999.0,54,0.00,,,0.00,0,WeatherHawk,2013-12-07 10:25:00,
2013-12-07 05:30:00,30.2,15.5,30.67,NW,320,0.0,-999.0,54,0.00,,,0.00,0,WeatherHawk,2013-12-07 10:30:00,
2013-12-07 05:35:00,30.2,15.6,30.66,NW,320,0.0,-999.0,54,0.00,,,0.00,1,WeatherHawk,2013-12-07 10:35:00,
2013-12-07 05:40:00,30.2,16.0,30.66,NW,320,0.0,-999.0,55,0.00,,,0.00,0,WeatherHawk,2013-12-07 10:40:00,
2013-12-07 05:45:00,30.2,16.4,30.68,NW,320,0.0,-999.0,56,0.00,,,0.00,0,WeatherHawk,2013-12-07 10:45:00,
2013-12-07 05:50:00,29.9,16.6,30.66,NW,320,0.0,-999.0,57,0.00,,,0.00,1,WeatherHawk,2013-12-07 10:50:00,
2013-12-07 05:55:00,30.0,17.0,30.68,NW,320,0.0,-999.0,58,0.00,,,0.00,0,WeatherHawk,2013-12-07 10:55:00,
2013-12-07 06:00:00,30.0,17.1,30.67,NW,320,0.0,-999.0,58,0.00,,,0.00,1,WeatherHawk,2013-12-07 11:00:00,
2013-12-07 06:05:00,29.9,16.5,30.68,NW,320,0.0,-999.0,57,0.00,,,0.00,0,WeatherHawk,2013-12-07 11:05:00,
2013-12-07 06:10:00,30.0,16.7,30.68,NW,321,0.0,-999.0,57,0.00,,,0.00,0,WeatherHawk,2013-12-07 11:10:00,
2013-12-07 06:15:00,29.9,15.7,30.68,NW,320,0.0,-999.0,55,0.00,,,0.00,1,WeatherHawk,2013-12-07 11:15:00,
2013-12-07 06:20:00,29.8,16.1,30.69,NW,320,0.0,-999.0,56,0.00,,,0.00,1,WeatherHawk,2013-12-07 11:20:00,
2013-12-07 06:25:00,30.0,16.2,30.69,NW,320,0.0,-999.0,56,0.00,,,0.00,0,WeatherHawk,2013-12-07 11:25:00,
2013-12-07 06:30:00,30.0,15.4,30.70,NW,320,0.0,-999.0,54,0.00,,,0.00,0,WeatherHawk,2013-12-07 11:30:00,
2013-12-07 06:35:00,29.8,15.2,30.70,NW,321,0.0,-999.0,54,0.00,,,0.00,0,WeatherHawk,2013-12-07 11:35:00,
2013-12-07 06:40:00,29.7,14.3,30.71,NW,320,0.0,-999.0,52,0.00,,,0.00,0,WeatherHawk,2013-12-07 11:40:00,
2013-12-07 06:45:00,29.9,14.0,30.70,NW,320,0.0,-999.0,51,0.00,,,0.00,0,WeatherHawk,2013-12-07 11:45:00,
2013-12-07 06:50:00,29.9,14.4,30.71,NW,320,0.0,-999.0,52,0.00,,,0.00,0,WeatherHawk,2013-12-07 11:50:00,
2013-12-07 06:55:00,29.9,14.9,30.71,NW,320,0.0,-999.0,53,0.00,,,0.00,1,WeatherHawk,2013-12-07 11:55:00,
2013-12-07 07:00:00,29.8,14.3,30.72,NW,320,0.0,-999.0,52,0.00,,,0.00,0,WeatherHawk,2013-12-07 12:00:00,
2013-12-07 07:05:00,29.6,14.2,30.72,NW,320,0.0,-999.0,52,0.00,,,0.00,0,WeatherHawk,2013-12-07 12:05:00,
2013-12-07 07:10:00,29.7,13.8,30.73,NW,320,0.0,-999.0,51,0.00,,,0.00,0,WeatherHawk,2013-12-07 12:10:00,
2013-12-07 07:15:00,29.6,13.2,30.72,NW,320,0.0,-999.0,50,0.00,,,0.00,0,WeatherHawk,2013-12-07 12:15:00,
2013-12-07 07:20:00,29.5,13.2,30.72,NW,320,0.0,-999.0,50,0.00,,,0.00,1,WeatherHawk,2013-12-07 12:20:00,
2013-12-07 07:25:00,29.4,13.1,30.72,NW,320,0.0,-999.0,50,0.00,,,0.00,0,WeatherHawk,2013-12-07 12:25:00,
2013-12-07 07:30:00,29.5,11.7,30.74,NW,321,0.0,-999.0,47,0.00,,,0.00,1,WeatherHawk,2013-12-07 12:30:00,
2013-12-07 07:35:00,29.3,11.1,30.73,NW,320,0.0,-999.0,46,0.00,,,0.00,1,WeatherHawk,2013-12-07 12:35:00,
2013-12-07 07:40:00,29.4,11.2,30.74,NW,321,0.0,-999.0,46,0.00,,,0.00,2,WeatherHawk,2013-12-07 12:40:00,
2013-12-07 07:45:00,29.4,10.7,30.75,NW,320,0.0,-999.0,45,0.00,,,0.00,4,WeatherHawk,2013-12-07 12:45:00,
2013-12-07 07:50:00,29.3,10.1,30.74,NW,320,0.0,-999.0,44,0.00,,,0.00,8,WeatherHawk,2013-12-07 12:50:00,
2013-12-07 07:55:00,29.3,10.6,30.76,NW,320,0.0,-999.0,45,0.00,,,0.00,9,WeatherHawk,2013-12-07 12:55:00,
2013-12-07 08:00:00,29.2,9.6,30.76,NW,320,0.0,-999.0,43,0.00,,,0.00,10,WeatherHawk,2013-12-07 13:00:00,
2013-12-07 08:05:00,29.3,10.7,30.75,NW,321,0.0,-999.0,45,0.00,,,0.00,16,WeatherHawk,2013-12-07 13:05:00,
2013-12-07 08:10:00,29.4,10.7,30.75,NW,321,0.0,-999.0,45,0.00,,,0.00,17,WeatherHawk,2013-12-07 13:10:00,
2013-12-07 08:15:00,29.5,10.3,30.75,NW,320,0.0,-999.0,44,0.00,,,0.00,20,WeatherHawk,2013-12-07 13:15:00,
2013-12-07 08:20:00,29.6,10.4,30.75,NW,320,0.0,-999.0,44,0.00,,,0.00,22,WeatherHawk,2013-12-07 13:20:00,
2013-12-07 08:25:00,29.4,10.2,30.75,NW,320,0.0,-999.0,44,0.00,,,0.00,20,WeatherHawk,2013-12-07 13:25:00,
2013-12-07 08:30:00,29.5,10.3,30.76,NW,320,0.0,-999.0,44,0.00,,,0.00,20,WeatherHawk,2013-12-07 13:30:00,
2013-12-07 08:35:00,29.3,10.1,30.76,NW,321,0.0,-999.0,44,0.00,,,0.00,21,WeatherHawk,2013-12-07 13:35:00,
2013-12-07 08:40:00,29.1,10.0,30.76,NW,320,0.0,-999.0,44,0.00,,,0.00,24,WeatherHawk,2013-12-07 13:40:00,
2013-12-07 08:45:00,29.6,10.9,30.76,NW,320,0.0,-999.0,45,0.00,,,0.00,26,WeatherHawk,2013-12-07 13:45:00,
2013-12-07 08:50:00,29.3,9.6,30.76,NW,321,0.0,-999.0,43,0.00,,,0.00,29,WeatherHawk,2013-12-07 13:50:00,
2013-12-07 08:55:00,29.7,10.0,30.76,NW,320,0.0,-999.0,43,0.00,,,0.00,47,WeatherHawk,2013-12-07 13:55:00,
2013-12-07 09:00:00,29.8,9.6,30.77,NW,320,0.0,-999.0,42,0.00,,,0.00,63,WeatherHawk,2013-12-07 14:00:00,
2013-12-07 09:05:00,29.4,8.6,30.77,NW,321,0.0,-999.0,41,0.00,,,0.00,72,WeatherHawk,2013-12-07 14:05:00,
2013-12-07 09:10:00,29.9,9.1,30.77,NW,320,0.0,-999.0,41,0.00,,,0.00,62,WeatherHawk,2013-12-07 14:10:00,
2013-12-07 09:15:00,29.5,8.2,30.77,NW,320,0.0,-999.0,40,0.00,,,0.00,64,WeatherHawk,2013-12-07 14:15:00,
2013-12-07 09:20:00,29.9,9.1,30.77,NW,321,0.0,-999.0,41,0.00,,,0.00,47,WeatherHawk,2013-12-07 14:20:00,
2013-12-07 09:30:00,30.3,8.4,30.77,NW,320,0.0,-999.0,39,0.00,,,0.00,87,WeatherHawk,2013-12-07 14:30:00,
2013-12-07 09:35:00,30.5,8.5,30.78,NW,320,0.0,-999.0,39,0.00,,,0.00,80,WeatherHawk,2013-12-07 14:35:00,
2013-12-07 09:40:00,30.7,7.5,30.78,NW,320,0.0,-999.0,37,0.00,,,0.00,92,WeatherHawk,2013-12-07 14:40:00,
2013-12-07 09:45:00,30.5,6.8,30.78,NW,320,0.0,-999.0,36,0.00,,,0.00,93,WeatherHawk,2013-12-07 14:45:00,
2013-12-07 09:50:00,30.2,7.1,30.78,NW,320,0.0,-999.0,37,0.00,,,0.00,79,WeatherHawk,2013-12-07 14:50:00,
2013-12-07 09:55:00,30.2,6.5,30.78,NW,320,0.0,-999.0,36,0.00,,,0.00,76,WeatherHawk,2013-12-07 14:55:00,
2013-12-07 10:00:00,31.0,8.4,30.78,NW,320,0.0,-999.0,38,0.00,,,0.00,72,WeatherHawk,2013-12-07 15:00:00,
2013-12-07 10:05:00,31.1,7.9,30.78,NW,320,0.0,-999.0,37,0.00,,,0.00,93,WeatherHawk,2013-12-07 15:05:00,
2013-12-07 10:10:00,30.5,7.3,30.78,NNW,330,0.0,-999.0,37,0.00,,,0.00,65,WeatherHawk,2013-12-07 15:10:00,
2013-12-07 10:15:00,30.2,6.5,30.78,NNW,330,0.0,-999.0,36,0.00,,,0.00,102,WeatherHawk,2013-12-07 15:15:00,
2013-12-07 10:20:00,30.8,7.0,30.78,NNW,330,0.0,-999.0,36,0.00,,,0.00,96,WeatherHawk,2013-12-07 15:20:00,
2013-12-07 10:25:00,30.3,7.2,30.79,NNW,330,0.0,-999.0,37,0.00,,,0.00,65,WeatherHawk,2013-12-07 15:25:00,
2013-12-07 10:30:00,30.8,7.6,30.79,NNW,330,0.0,-999.0,37,0.00,,,0.00,84,WeatherHawk,2013-12-07 15:30:00,
2013-12-07 10:35:00,30.4,7.3,30.79,NNW,330,0.0,-999.0,37,0.00,,,0.00,53,WeatherHawk,2013-12-07 15:35:00,
2013-12-07 10:40:00,30.7,7.6,30.78,NNW,330,0.0,-999.0,37,0.00,,,0.00,73,WeatherHawk,2013-12-07 15:40:00,
2013-12-07 10:50:00,30.5,6.8,30.79,NW,321,0.0,-999.0,36,0.00,,,0.00,126,WeatherHawk,2013-12-07 15:50:00,
2013-12-07 10:55:00,30.7,8.2,30.78,NW,321,1.0,-999.0,38,0.00,,,0.00,95,WeatherHawk,2013-12-07 15:55:00,
2013-12-07 11:00:00,31.2,7.3,30.79,NW,321,0.0,-999.0,36,0.00,,,0.00,105,WeatherHawk,2013-12-07 16:00:00,
2013-12-07 11:05:00,31.6,7.2,30.77,NW,322,0.0,-999.0,35,0.00,,,0.00,150,WeatherHawk,2013-12-07 16:05:00,
2013-12-07 11:10:00,31.0,6.0,30.78,NW,316,0.0,-999.0,34,0.00,,,0.00,114,WeatherHawk,2013-12-07 16:10:00,
2013-12-07 11:15:00,31.7,6.0,30.77,WNW,294,0.0,-999.0,33,0.00,,,0.00,118,WeatherHawk,2013-12-07 16:15:00,
2013-12-07 11:20:00,31.7,5.2,30.77,NNE,21,0.0,-999.0,32,0.00,,,0.00,130,WeatherHawk,2013-12-07 16:20:00,
2013-12-07 11:25:00,31.5,5.0,30.77,NNE,17,0.0,-999.0,32,0.00,,,0.00,88,WeatherHawk,2013-12-07 16:25:00,
2013-12-07 11:30:00,31.3,4.9,30.77,SSW,208,0.0,-999.0,32,0.00,,,0.00,105,WeatherHawk,2013-12-07 16:30:00,
2013-12-07 11:35:00,31.3,2.8,30.77,West,273,0.0,-999.0,29,0.00,,,0.00,114,WeatherHawk,2013-12-07 16:35:00,
2013-12-07 11:40:00,32.0,5.5,30.76,NW,322,0.0,-999.0,32,0.00,,,0.00,118,WeatherHawk,2013-12-07 16:40:00,
2013-12-07 11:50:00,31.4,3.6,30.76,NW,311,0.0,-999.0,30,0.00,,,0.00,85,WeatherHawk,2013-12-07 16:50:00,
2013-12-07 11:55:00,31.2,4.8,30.76,NW,304,1.0,-999.0,32,0.00,,,0.00,91,WeatherHawk,2013-12-07 16:55:00,
2013-12-07 12:00:00,31.9,4.8,30.76,NNE,32,0.0,-999.0,31,0.00,,,0.00,112,WeatherHawk,2013-12-07 17:00:00,
2013-12-07 12:05:00,31.5,2.9,30.76,North,351,1.0,-999.0,29,0.00,,,0.00,92,WeatherHawk,2013-12-07 17:05:00,
2013-12-07 12:10:00,31.5,5.8,30.76,NW,321,0.0,-999.0,33,0.00,,,0.00,76,WeatherHawk,2013-12-07 17:10:00,
2013-12-07 12:15:00,31.6,5.8,30.76,NW,312,0.0,-999.0,33,0.00,,,0.00,79,WeatherHawk,2013-12-07 17:15:00,
2013-12-07 12:20:00,31.6,5.2,30.76,NW,310,0.0,-999.0,32,0.00,,,0.00,73,WeatherHawk,2013-12-07 17:20:00,
2013-12-07 12:25:00,30.9,5.9,30.75,WNW,296,2.0,-999.0,34,0.00,,,0.00,84,WeatherHawk,2013-12-07 17:25:00,
2013-12-07 12:30:00,30.8,5.1,30.75,NNW,332,2.0,-999.0,33,0.00,,,0.00,80,WeatherHawk,2013-12-07 17:30:00,
2013-12-07 12:35:00,31.4,6.3,30.76,ENE,74,0.0,-999.0,34,0.00,,,0.00,84,WeatherHawk,2013-12-07 17:35:00,
2013-12-07 12:40:00,31.4,5.7,30.75,ENE,66,0.0,-999.0,33,0.00,,,0.00,85,WeatherHawk,2013-12-07 17:40:00,
2013-12-07 12:45:00,31.2,5.5,30.76,NW,314,1.0,-999.0,33,0.00,,,0.00,97,WeatherHawk,2013-12-07 17:45:00,
2013-12-07 12:50:00,31.5,5.7,30.76,NNE,18,0.0,-999.0,33,0.00,,,0.00,87,WeatherHawk,2013-12-07 17:50:00,
2013-12-07 12:55:00,31.4,5.6,30.76,East,88,0.0,-999.0,33,0.00,,,0.00,73,WeatherHawk,2013-12-07 17:55:00,
2013-12-07 13:05:00,31.0,6.5,30.77,NNW,348,0.0,-999.0,35,0.00,,,0.00,49,WeatherHawk,2013-12-07 18:05:00,
2013-12-07 13:10:00,31.0,7.2,30.76,NW,322,0.0,-999.0,36,0.00,,,0.00,58,WeatherHawk,2013-12-07 18:10:00,
2013-12-07 13:15:00,30.9,7.7,30.77,West,268,0.0,-999.0,37,0.00,,,0.00,50,WeatherHawk,2013-12-07 18:15:00,
2013-12-07 13:20:00,30.6,8.1,30.76,SE,143,0.0,-999.0,38,0.00,,,0.00,50,WeatherHawk,2013-12-07 18:20:00,
2013-12-07 13:25:00,30.6,8.6,30.77,WNW,285,3.0,-999.0,39,0.00,,,0.00,50,WeatherHawk,2013-12-07 18:25:00,
2013-12-07 13:30:00,30.4,8.4,30.77,WNW,301,3.0,-999.0,39,0.00,,,0.00,53,WeatherHawk,2013-12-07 18:30:00,
2013-12-07 13:35:00,30.6,7.5,30.76,NNE,14,0.0,-999.0,37,0.00,,,0.00,47,WeatherHawk,2013-12-07 18:35:00,
2013-12-07 13:40:00,30.4,7.9,30.77,West,277,0.0,-999.0,38,0.00,,,0.00,50,WeatherHawk,2013-12-07 18:40:00,
2013-12-07 13:45:00,30.2,7.1,30.77,NW,319,0.0,-999.0,37,0.00,,,0.00,65,WeatherHawk,2013-12-07 18:45:00,
2013-12-07 13:50:00,30.7,8.1,30.76,NNE,14,0.0,-999.0,38,0.00,,,0.00,57,WeatherHawk,2013-12-07 18:50:00,
2013-12-07 13:55:00,30.9,8.3,30.76,WSW,258,0.0,-999.0,38,0.00,,,0.00,48,WeatherHawk,2013-12-07 18:55:00,
2013-12-07 14:00:00,30.4,7.2,30.76,West,275,4.0,-999.0,37,0.00,,,0.00,50,WeatherHawk,2013-12-07 19:00:00,
2013-12-07 14:05:00,30.3,7.8,30.76,West,281,0.0,-999.0,38,0.00,,,0.00,47,WeatherHawk,2013-12-07 19:05:00,
2013-12-07 14:10:00,30.9,8.8,30.76,NW,322,0.0,-999.0,39,0.00,,,0.00,47,WeatherHawk,2013-12-07 19:10:00,
2013-12-07 14:15:00,30.2,7.1,30.76,WSW,253,0.0,-999.0,37,0.00,,,0.00,48,WeatherHawk,2013-12-07 19:15:00,
2013-12-07 14:20:00,30.0,6.9,30.75,West,263,2.0,-999.0,37,0.00,,,0.00,65,WeatherHawk,2013-12-07 19:20:00,
2013-12-07 14:25:00,30.4,7.3,30.76,NNW,328,2.0,-999.0,37,0.00,,,0.00,46,WeatherHawk,2013-12-07 19:25:00,
2013-12-07 14:30:00,29.9,6.8,30.75,North,5,3.0,-999.0,37,0.00,,,0.00,55,WeatherHawk,2013-12-07 19:30:00,
2013-12-07 14:40:00,29.9,6.3,30.76,WNW,295,4.0,-999.0,36,0.00,,,0.00,68,WeatherHawk,2013-12-07 19:40:00,
2013-12-07 14:45:00,30.1,7.0,30.75,WSW,246,3.0,-999.0,37,0.00,,,0.00,78,WeatherHawk,2013-12-07 19:45:00,
2013-12-07 14:50:00,30.2,7.1,30.76,NE,39,0.0,-999.0,37,0.00,,,0.00,67,WeatherHawk,2013-12-07 19:50:00,
2013-12-07 14:55:00,30.6,6.9,30.76,NW,306,0.0,-999.0,36,0.00,,,0.00,65,WeatherHawk,2013-12-07 19:55:00,
2013-12-07 15:00:00,30.5,6.8,30.75,WNW,291,0.0,-999.0,36,0.00,,,0.00,60,WeatherHawk,2013-12-07 20:00:00,
2013-12-07 15:05:00,30.9,7.7,30.75,West,273,0.0,-999.0,37,0.00,,,0.00,41,WeatherHawk,2013-12-07 20:05:00,
2013-12-07 15:10:00,30.4,7.3,30.75,ESE,106,0.0,-999.0,37,0.00,,,0.00,34,WeatherHawk,2013-12-07 20:10:00,
2013-12-07 15:15:00,30.4,7.2,30.75,West,264,0.0,-999.0,37,0.00,,,0.00,40,WeatherHawk,2013-12-07 20:15:00,
2013-12-07 15:20:00,30.6,7.4,30.76,NE,38,0.0,-999.0,37,0.00,,,0.00,42,WeatherHawk,2013-12-07 20:20:00,
2013-12-07 15:25:00,30.3,6.6,30.76,NNW,340,0.0,-999.0,36,0.00,,,0.00,38,WeatherHawk,2013-12-07 20:25:00,
2013-12-07 15:30:00,29.9,6.2,30.77,WNW,296,0.0,-999.0,36,0.00,,,0.00,45,WeatherHawk,2013-12-07 20:30:00,
2013-12-07 15:35:00,30.2,7.7,30.76,WNW,299,0.0,-999.0,38,0.00,,,0.00,24,WeatherHawk,2013-12-07 20:35:00,
2013-12-07 15:40:00,30.1,7.0,30.77,ESE,117,0.0,-999.0,37,0.00,,,0.00,21,WeatherHawk,2013-12-07 20:40:00,
2013-12-07 15:45:00,30.1,6.4,30.76,NNW,341,0.0,-999.0,36,0.00,,,0.00,19,WeatherHawk,2013-12-07 20:45:00,
2013-12-07 15:50:00,30.1,6.4,30.77,North,350,0.0,-999.0,36,0.00,,,0.00,23,WeatherHawk,2013-12-07 20:50:00,
2013-12-07 15:55:00,30.2,7.7,30.77,SSW,202,0.0,-999.0,38,0.00,,,0.00,24,WeatherHawk,2013-12-07 20:55:00,
2013-12-07 16:00:00,30.3,7.2,30.76,WSW,254,0.0,-999.0,37,0.00,,,0.00,29,WeatherHawk,2013-12-07 21:00:00,
2013-12-07 16:05:00,30.2,6.5,30.77,NW,306,0.0,-999.0,36,0.00,,,0.00,35,WeatherHawk,2013-12-07 21:05:00,
2013-12-07 16:10:00,30.5,6.7,30.77,SW,223,0.0,-999.0,36,0.00,,,0.00,19,WeatherHawk,2013-12-07 21:10:00,
2013-12-07 16:15:00,30.3,6.6,30.77,East,85,0.0,-999.0,36,0.00,,,0.00,19,WeatherHawk,2013-12-07 21:15:00,
2013-12-07 16:20:00,30.0,5.7,30.77,NNW,333,1.0,-999.0,35,0.00,,,0.00,19,WeatherHawk,2013-12-07 21:20:00,
2013-12-07 16:25:00,30.2,7.1,30.78,NNW,337,0.0,-999.0,37,0.00,,,0.00,19,WeatherHawk,2013-12-07 21:25:00,
2013-12-07 16:30:00,29.8,4.9,30.78,NNW,327,2.0,-999.0,34,0.00,,,0.00,17,WeatherHawk,2013-12-07 21:30:00,
2013-12-07 16:35:00,30.0,5.7,30.77,WNW,282,0.0,-999.0,35,0.00,,,0.00,13,WeatherHawk,2013-12-07 21:35:00,
2013-12-07 16:40:00,30.0,5.1,30.78,NNE,32,0.0,-999.0,34,0.00,,,0.00,12,WeatherHawk,2013-12-07 21:40:00,
2013-12-07 16:45:00,29.8,5.5,30.78,NNW,340,0.0,-999.0,35,0.00,,,0.00,6,WeatherHawk,2013-12-07 21:45:00,
2013-12-07 16:50:00,29.8,6.1,30.78,ESE,112,0.0,-999.0,36,0.00,,,0.00,7,WeatherHawk,2013-12-07 21:50:00,
2013-12-07 16:55:00,29.6,5.9,30.77,East,89,0.0,-999.0,36,0.00,,,0.00,5,WeatherHawk,2013-12-07 21:55:00,
2013-12-07 17:00:00,29.9,6.9,30.78,WSW,255,0.0,-999.0,37,0.00,,,0.00,3,WeatherHawk,2013-12-07 22:00:00,
2013-12-07 17:05:00,29.7,6.7,30.79,NE,35,0.0,-999.0,37,0.00,,,0.00,2,WeatherHawk,2013-12-07 22:05:00,
2013-12-07 17:10:00,29.6,5.3,30.78,SE,143,0.0,-999.0,35,0.00,,,0.00,2,WeatherHawk,2013-12-07 22:10:00,
2013-12-07 17:15:00,29.5,5.8,30.78,West,260,0.0,-999.0,36,0.00,,,0.00,1,WeatherHawk,2013-12-07 22:15:00,
2013-12-07 17:20:00,29.4,5.1,30.78,NE,51,0.0,-999.0,35,0.00,,,0.00,0,WeatherHawk,2013-12-07 22:20:00,
2013-12-07 17:25:00,29.3,6.3,30.78,NW,306,0.0,-999.0,37,0.00,,,0.00,0,WeatherHawk,2013-12-07 22:25:00,
2013-12-07 17:30:00,29.3,6.3,30.78,South,182,0.0,-999.0,37,0.00,,,0.00,0,WeatherHawk,2013-12-07 22:30:00,
2013-12-07 17:35:00,29.6,7.1,30.80,SSW,211,0.0,-999.0,38,0.00,,,0.00,0,WeatherHawk,2013-12-07 22:35:00,
2013-12-07 17:40:00,29.6,6.5,30.79,NW,307,0.0,-999.0,37,0.00,,,0.00,0,WeatherHawk,2013-12-07 22:40:00,
2013-12-07 17:45:00,29.6,7.1,30.80,West,273,0.0,-999.0,38,0.00,,,0.00,0,WeatherHawk,2013-12-07 22:45:00,
2013-12-07 17:50:00,29.1,6.1,30.80,NE,50,0.0,-999.0,37,0.00,,,0.00,1,WeatherHawk,2013-12-07 22:50:00,
2013-12-07 17:55:00,28.9,5.3,30.81,East,96,0.0,-999.0,36,0.00,,,0.00,0,WeatherHawk,2013-12-07 22:55:00,
2013-12-07 18:00:00,28.7,5.2,30.81,NNE,32,0.0,-999.0,36,0.00,,,0.00,1,WeatherHawk,2013-12-07 23:00:00,
2013-12-07 18:05:00,28.7,4.5,30.81,ENE,77,0.0,-999.0,35,0.00,,,0.00,0,WeatherHawk,2013-12-07 23:05:00,
2013-12-07 18:10:00,28.7,5.1,30.81,South,176,0.0,-999.0,36,0.00,,,0.00,0,WeatherHawk,2013-12-07 23:10:00,
2013-12-07 18:15:00,28.5,6.1,30.81,ENE,60,0.0,-999.0,38,0.00,,,0.00,0,WeatherHawk,2013-12-07 23:15:00,
2013-12-07 18:20:00,28.3,5.4,30.81,East,99,0.0,-999.0,37,0.00,,,0.00,0,WeatherHawk,2013-12-07 23:20:00,
2013-12-07 18:25:00,28.0,5.2,30.81,ESE,112,0.0,-999.0,37,0.00,,,0.00,0,WeatherHawk,2013-12-07 23:25:00,
2013-12-07 18:30:00,27.9,5.6,30.81,SSE,161,0.0,-999.0,38,0.00,,,0.00,0,WeatherHawk,2013-12-07 23:30:00,
2013-12-07 18:35:00,28.2,6.5,30.82,South,179,0.0,-999.0,39,0.00,,,0.00,0,WeatherHawk,2013-12-07 23:35:00,
2013-12-07 18:40:00,27.9,6.8,30.82,South,175,0.0,-999.0,40,0.00,,,0.00,0,WeatherHawk,2013-12-07 23:40:00,
2013-12-07 18:45:00,27.7,6.6,30.82,West,269,0.0,-999.0,40,0.00,,,0.00,0,WeatherHawk,2013-12-07 23:45:00,
2013-12-07 18:50:00,27.2,6.7,30.81,West,269,0.0,-999.0,41,0.00,,,0.00,0,WeatherHawk,2013-12-07 23:50:00,
2013-12-07 18:55:00,27.5,7.4,30.82,NE,55,0.0,-999.0,42,0.00,,,0.00,1,WeatherHawk,2013-12-07 23:55:00,
2013-12-07 19:00:00,27.3,7.3,30.83,SW,233,0.0,-999.0,42,0.00,,,0.00,0,WeatherHawk,2013-12-08 00:00:00,
2013-12-07 19:05:00,27.2,7.7,30.83,South,186,0.0,-999.0,43,0.00,,,0.00,0,WeatherHawk,2013-12-08 00:05:00,
2013-12-07 19:10:00,26.8,7.3,30.82,SE,129,0.0,-999.0,43,0.00,,,0.00,1,WeatherHawk,2013-12-08 00:10:00,
2013-12-07 19:15:00,26.9,7.9,30.83,SE,129,0.0,-999.0,44,0.00,,,0.00,0,WeatherHawk,2013-12-08 00:15:00,
2013-12-07 19:20:00,27.0,8.5,30.82,SE,129,0.0,-999.0,45,0.00,,,0.00,0,WeatherHawk,2013-12-08 00:20:00,
2013-12-07 19:25:00,26.8,8.8,30.82,East,86,0.0,-999.0,46,0.00,,,0.00,0,WeatherHawk,2013-12-08 00:25:00,
2013-12-07 19:30:00,26.5,9.0,30.83,ENE,76,0.0,-999.0,47,0.00,,,0.00,0,WeatherHawk,2013-12-08 00:30:00,
2013-12-07 19:35:00,26.6,9.1,30.83,ENE,74,0.0,-999.0,47,0.00,,,0.00,1,WeatherHawk,2013-12-08 00:35:00,
2013-12-07 19:40:00,26.2,9.2,30.83,NW,326,0.0,-999.0,48,0.00,,,0.00,0,WeatherHawk,2013-12-08 00:40:00,
2013-12-07 19:45:00,26.3,9.7,30.83,NW,326,0.0,-999.0,49,0.00,,,0.00,0,WeatherHawk,2013-12-08 00:45:00,
2013-12-07 19:50:00,26.1,10.0,30.83,NW,326,0.0,-999.0,50,0.00,,,0.00,0,WeatherHawk,2013-12-08 00:50:00,
2013-12-07 19:55:00,25.8,10.2,30.83,NW,326,0.0,-999.0,51,0.00,,,0.00,0,WeatherHawk,2013-12-08 00:55:00,
2013-12-07 20:00:00,26.6,11.4,30.84,WSW,250,0.0,-999.0,52,0.00,,,0.00,0,WeatherHawk,2013-12-08 01:00:00,
2013-12-07 20:05:00,26.1,10.5,30.83,WSW,248,0.0,-999.0,51,0.00,,,0.00,0,WeatherHawk,2013-12-08 01:05:00,
2013-12-07 20:10:00,26.4,11.1,30.83,WSW,248,0.0,-999.0,52,0.00,,,0.00,0,WeatherHawk,2013-12-08 01:10:00,
2013-12-07 20:15:00,26.2,11.5,30.83,WSW,248,0.0,-999.0,53,0.00,,,0.00,1,WeatherHawk,2013-12-08 01:15:00,
2013-12-07 20:20:00,26.2,11.0,30.83,SW,236,0.0,-999.0,52,0.00,,,0.00,0,WeatherHawk,2013-12-08 01:20:00,
2013-12-07 20:25:00,26.7,11.5,30.83,SW,236,0.0,-999.0,52,0.00,,,0.00,0,WeatherHawk,2013-12-08 01:25:00,
2013-12-07 20:30:00,26.3,11.1,30.83,SW,236,0.0,-999.0,52,0.00,,,0.00,0,WeatherHawk,2013-12-08 01:30:00,
2013-12-07 20:35:00,26.4,11.1,30.83,SW,236,0.0,-999.0,52,0.00,,,0.00,0,WeatherHawk,2013-12-08 01:35:00,
2013-12-07 20:40:00,26.8,12.0,30.82,SW,236,0.0,-999.0,53,0.00,,,0.00,0,WeatherHawk,2013-12-08 01:40:00,
2013-12-07 20:45:00,26.8,11.6,30.83,SW,236,0.0,-999.0,52,0.00,,,0.00,0,WeatherHawk,2013-12-08 01:45:00,
2013-12-07 20:50:00,27.0,11.7,30.83,WSW,237,0.0,-999.0,52,0.00,,,0.00,0,WeatherHawk,2013-12-08 01:50:00,
2013-12-07 20:55:00,27.5,10.9,30.84,NNW,344,0.0,-999.0,49,0.00,,,0.00,0,WeatherHawk,2013-12-08 01:55:00,
2013-12-07 21:00:00,27.3,10.3,30.84,NW,320,0.0,-999.0,48,0.00,,,0.00,1,WeatherHawk,2013-12-08 02:00:00,
2013-12-07 21:05:00,27.4,9.9,30.83,NW,322,0.0,-999.0,47,0.00,,,0.00,0,WeatherHawk,2013-12-08 02:05:00,
2013-12-07 21:10:00,27.4,9.4,30.84,NW,323,0.0,-999.0,46,0.00,,,0.00,0,WeatherHawk,2013-12-08 02:10:00,
2013-12-07 21:15:00,27.6,9.1,30.83,North,2,0.0,-999.0,45,0.00,,,0.00,1,WeatherHawk,2013-12-08 02:15:00,
2013-12-07 21:20:00,27.3,9.3,30.82,West,261,0.0,-999.0,46,0.00,,,0.00,0,WeatherHawk,2013-12-08 02:20:00,
2013-12-07 21:25:00,27.3,8.8,30.81,WSW,252,0.0,-999.0,45,0.00,,,0.00,0,WeatherHawk,2013-12-08 02:25:00,
2013-12-07 21:30:00,27.3,8.8,30.81,NNE,14,0.0,-999.0,45,0.00,,,0.00,0,WeatherHawk,2013-12-08 02:30:00,
2013-12-07 21:35:00,27.2,8.7,30.81,North,9,0.0,-999.0,45,0.00,,,0.00,0,WeatherHawk,2013-12-08 02:35:00,
2013-12-07 21:40:00,27.3,8.3,30.81,East,81,0.0,-999.0,44,0.00,,,0.00,0,WeatherHawk,2013-12-08 02:40:00,
2013-12-07 21:45:00,27.3,8.3,30.81,NNW,328,0.0,-999.0,44,0.00,,,0.00,0,WeatherHawk,2013-12-08 02:45:00,
2013-12-07 21:50:00,27.3,7.3,30.82,NE,35,0.0,-999.0,42,0.00,,,0.00,0,WeatherHawk,2013-12-08 02:50:00,
2013-12-07 21:55:00,27.2,7.2,30.81,East,91,0.0,-999.0,42,0.00,,,0.00,0,WeatherHawk,2013-12-08 02:55:00,
2013-12-07 22:05:00,27.3,8.3,30.80,SW,224,0.0,-999.0,44,0.00,,,0.00,0,WeatherHawk,2013-12-08 03:05:00,
2013-12-07 22:10:00,27.0,7.5,30.81,SE,143,0.0,-999.0,43,0.00,,,0.00,0,WeatherHawk,2013-12-08 03:10:00,
2013-12-07 22:15:00,26.8,7.9,30.81,SSE,157,0.0,-999.0,44,0.00,,,0.00,1,WeatherHawk,2013-12-08 03:15:00,
2013-12-07 22:20:00,26.7,7.7,30.81,SSE,157,0.0,-999.0,44,0.00,,,0.00,0,WeatherHawk,2013-12-08 03:20:00,
2013-12-07 22:25:00,26.9,8.4,30.81,SSE,165,0.0,-999.0,45,0.00,,,0.00,1,WeatherHawk,2013-12-08 03:25:00,
2013-12-07 22:30:00,26.7,8.2,30.81,SSE,165,0.0,-999.0,45,0.00,,,0.00,0,WeatherHawk,2013-12-08 03:30:00,
2013-12-07 22:35:00,26.8,8.3,30.82,SSE,165,0.0,-999.0,45,0.00,,,0.00,0,WeatherHawk,2013-12-08 03:35:00,
2013-12-07 22:45:00,26.9,8.9,30.80,SSW,192,0.0,-999.0,46,0.00,,,0.00,0,WeatherHawk,2013-12-08 03:45:00,
2013-12-07 22:50:00,26.8,8.4,30.80,SE,131,0.0,-999.0,45,0.00,,,0.00,0,WeatherHawk,2013-12-08 03:50:00,
2013-12-07 22:55:00,26.7,8.2,30.79,WNW,289,0.0,-999.0,45,0.00,,,0.00,1,WeatherHawk,2013-12-08 03:55:00,
2013-12-07 23:00:00,26.8,7.9,30.80,North,350,0.0,-999.0,44,0.00,,,0.00,0,WeatherHawk,2013-12-08 04:00:00,
2013-12-07 23:05:00,26.8,7.9,30.78,WSW,240,0.0,-999.0,44,0.00,,,0.00,1,WeatherHawk,2013-12-08 04:05:00,
2013-12-07 23:10:00,26.8,7.8,30.79,SE,145,0.0,-999.0,44,0.00,,,0.00,0,WeatherHawk,2013-12-08 04:10:00,
2013-12-07 23:15:00,26.8,7.8,30.79,South,182,0.0,-999.0,44,0.00,,,0.00,0,WeatherHawk,2013-12-08 04:15:00,
2013-12-07 23:25:00,26.5,7.6,30.80,NNW,335,0.0,-999.0,44,0.00,,,0.00,0,WeatherHawk,2013-12-08 04:25:00,
2013-12-07 23:30:00,26.7,8.3,30.81,WSW,247,0.0,-999.0,45,0.00,,,0.00,0,WeatherHawk,2013-12-08 04:30:00,
2013-12-07 23:35:00,26.8,8.3,30.81,SW,224,0.0,-999.0,45,0.00,,,0.00,0,WeatherHawk,2013-12-08 04:35:00,
2013-12-07 23:40:00,26.6,8.2,30.80,ENE,74,0.0,-999.0,45,0.00,,,0.00,0,WeatherHawk,2013-12-08 04:40:00,
2013-12-07 23:45:00,26.7,8.2,30.80,NW,320,0.0,-999.0,45,0.00,,,0.00,0,WeatherHawk,2013-12-08 04:45:00,
2013-12-07 23:50:00,26.5,8.5,30.80,WNW,288,0.0,-999.0,46,0.00,,,0.00,1,WeatherHawk,2013-12-08 04:50:00,
2013-12-07 23:55:00,26.5,8.5,30.81,NW,316,0.0,-999.0,46,0.00,,,0.00,0,WeatherHawk,2013-12-08 04:55:00,